PAL357 RPLL-RPVM

Flight info

Callsign PAL357
Flight time N/A
Altitude 37000
Route IPATA2R IPATA W25 BATAY BATAY3P
Aircraft A333/H-SDE3GHIJ2J3J5M1RVWXY/LB2D1

Departure

Time 2026-05-01 08:36
Airport Ninoy Aquino International Airport (RPLL)

Arrival

Time N/A
Airport Mactan Cebu International Airport (RPVM)
Time Latitude Longitude Altitude Speed Heading
2026-05-01 08:10 14.50835 121.01311 72 ft 0 kts 330°
2026-05-01 08:10 14.50834 121.01311 72 ft 0 kts 330°
2026-05-01 08:22 14.50828 121.01314 73 ft 2 kts 328°
2026-05-01 08:22 14.50825 121.01316 62 ft 0 kts 327°
2026-05-01 08:23 14.50824 121.01317 62 ft 2 kts 327°
2026-05-01 08:23 14.50812 121.01325 63 ft 2 kts 326°
2026-05-01 08:23 14.50801 121.01333 64 ft 2 kts 319°
2026-05-01 08:24 14.50790 121.01342 64 ft 2 kts 311°
2026-05-01 08:24 14.50781 121.01355 63 ft 2 kts 285°
2026-05-01 08:24 14.50781 121.01371 62 ft 2 kts 243°
2026-05-01 08:24 14.50783 121.01375 62 ft 0 kts 240°
2026-05-01 08:29 14.50780 121.01369 62 ft 2 kts 240°
2026-05-01 08:29 14.50769 121.01349 62 ft 4 kts 240°
2026-05-01 08:29 14.50747 121.01320 62 ft 5 kts 223°
2026-05-01 08:29 14.50728 121.01316 66 ft 3 kts 182°
2026-05-01 08:30 14.50697 121.01314 67 ft 7 kts 184°
2026-05-01 08:30 14.50656 121.01291 62 ft 6 kts 229°
2026-05-01 08:30 14.50636 121.01259 65 ft 10 kts 239°
2026-05-01 08:30 14.50591 121.01179 62 ft 16 kts 239°
2026-05-01 08:31 14.50528 121.01064 67 ft 19 kts 239°
2026-05-01 08:31 14.50456 121.00937 69 ft 23 kts 240°
2026-05-01 08:31 14.50368 121.00780 61 ft 28 kts 240°
2026-05-01 08:31 14.50270 121.00603 61 ft 29 kts 241°
2026-05-01 08:32 14.50169 121.00423 66 ft 29 kts 240°
2026-05-01 08:32 14.50068 121.00244 62 ft 29 kts 239°
2026-05-01 08:32 14.49982 121.00085 65 ft 22 kts 240°
2026-05-01 08:32 14.49942 121.00014 63 ft 7 kts 239°
2026-05-01 08:33 14.49941 121.00011 63 ft 1 kts 239°
2026-05-01 08:33 14.49934 121.00000 63 ft 3 kts 239°
2026-05-01 08:33 14.49904 120.99971 64 ft 8 kts 205°
2026-05-01 08:34 14.49872 120.99971 63 ft 4 kts 167°
2026-05-01 08:34 14.49841 120.99985 65 ft 6 kts 150°
2026-05-01 08:34 14.49811 121.00030 66 ft 9 kts 102°
2026-05-01 08:34 14.49834 121.00096 63 ft 12 kts 62°
2026-05-01 08:35 14.49916 121.00248 61 ft 41 kts 60°
2026-05-01 08:35 14.50161 121.00689 62 ft 103 kts 60°
2026-05-01 08:35 14.50617 121.01506 65 ft 158 kts 60°
2026-05-01 08:35 14.51226 121.02599 462 ft 182 kts 63°
2026-05-01 08:36 14.51808 121.03765 1295 ft 182 kts 63°
2026-05-01 08:36 14.52436 121.04891 2158 ft 185 kts 61°
2026-05-01 08:36 14.53135 121.06115 2562 ft 210 kts 60°
2026-05-01 08:36 14.53920 121.07503 2860 ft 237 kts 61°
2026-05-01 08:37 14.54770 121.09019 3356 ft 250 kts 60°
2026-05-01 08:37 14.55661 121.10614 3866 ft 262 kts 61°
2026-05-01 08:37 14.56574 121.12265 4657 ft 266 kts 62°
2026-05-01 08:37 14.57245 121.14037 5519 ft 266 kts 77°
2026-05-01 08:38 14.57550 121.15929 6373 ft 269 kts 83°
2026-05-01 08:38 14.57765 121.17857 7252 ft 271 kts 84°
2026-05-01 08:38 14.57975 121.19803 8249 ft 275 kts 84°
2026-05-01 08:38 14.58192 121.21776 9169 ft 278 kts 84°
2026-05-01 08:39 14.58369 121.23779 10019 ft 282 kts 89°
2026-05-01 08:39 14.58073 121.25823 10558 ft 300 kts 109°
2026-05-01 08:39 14.56883 121.27672 10870 ft 325 kts 134°
2026-05-01 08:39 14.55082 121.29176 11332 ft 338 kts 141°
2026-05-01 08:40 14.51214 121.32043 12809 ft 347 kts 141°
2026-05-01 08:40 14.49261 121.33512 13597 ft 349 kts 141°
2026-05-01 08:40 14.47286 121.35009 14187 ft 355 kts 141°
2026-05-01 08:41 14.45289 121.36530 14829 ft 358 kts 141°
2026-05-01 08:41 14.43276 121.38067 15463 ft 362 kts 141°
2026-05-01 08:41 14.41243 121.39622 16141 ft 366 kts 141°
2026-05-01 08:41 14.40659 121.40068 16309 ft 367 kts 141°
2026-05-01 08:42 14.40078 121.40513 16506 ft 367 kts 141°
2026-05-01 08:42 14.38018 121.42090 17196 ft 370 kts 141°
2026-05-01 08:42 14.35941 121.43678 17876 ft 372 kts 141°
2026-05-01 08:43 14.33857 121.45272 18473 ft 376 kts 142°
2026-05-01 08:43 14.31737 121.46894 18883 ft 383 kts 141°
2026-05-01 08:43 14.29588 121.48538 19413 ft 386 kts 142°
2026-05-01 08:43 14.27420 121.50195 19877 ft 391 kts 142°
2026-05-01 08:44 14.25227 121.51869 20410 ft 393 kts 141°
2026-05-01 08:44 14.23020 121.53555 20912 ft 397 kts 142°
2026-05-01 08:44 14.20796 121.55252 21434 ft 399 kts 142°
2026-05-01 08:44 14.18556 121.56960 21946 ft 402 kts 142°
2026-05-01 08:45 14.16292 121.58686 22353 ft 408 kts 142°
2026-05-01 08:45 14.14000 121.60433 22820 ft 412 kts 142°
2026-05-01 08:45 14.11683 121.62199 23242 ft 417 kts 143°
2026-05-01 08:45 14.09342 121.63983 23670 ft 420 kts 143°
2026-05-01 08:46 14.06988 121.65778 24073 ft 423 kts 143°
2026-05-01 08:46 14.04614 121.67590 24473 ft 426 kts 143°
2026-05-01 08:46 14.02227 121.69411 24863 ft 429 kts 143°
2026-05-01 08:46 13.99822 121.71245 25254 ft 432 kts 143°
2026-05-01 08:47 13.97400 121.73092 25654 ft 434 kts 143°
2026-05-01 08:47 13.94996 121.74925 26003 ft 438 kts 143°
2026-05-01 08:47 13.92542 121.76795 26383 ft 441 kts 144°
2026-05-01 08:47 13.90070 121.78678 26751 ft 443 kts 144°
2026-05-01 08:48 13.87582 121.80574 27119 ft 447 kts 144°
2026-05-01 08:48 13.85071 121.82478 27477 ft 450 kts 144°
2026-05-01 08:48 13.82539 121.84390 27863 ft 453 kts 145°
2026-05-01 08:48 13.79992 121.86312 28223 ft 456 kts 144°
2026-05-01 08:49 13.77433 121.88243 28613 ft 458 kts 145°
2026-05-01 08:49 13.74851 121.90191 28927 ft 462 kts 145°
2026-05-01 08:49 13.72257 121.92149 29296 ft 464 kts 145°
2026-05-01 08:49 13.69641 121.94122 29645 ft 467 kts 145°
2026-05-01 08:50 13.67011 121.96103 29980 ft 470 kts 145°
2026-05-01 08:50 13.64374 121.98092 30345 ft 470 kts 145°
2026-05-01 08:50 13.61921 121.99940 30692 ft 471 kts 145°
2026-05-01 08:50 13.59277 122.01932 31032 ft 472 kts 145°
2026-05-01 08:51 13.56626 122.03928 31362 ft 473 kts 145°
2026-05-01 08:51 13.53969 122.05928 31688 ft 474 kts 145°
2026-05-01 08:51 13.51303 122.07934 32022 ft 475 kts 145°
2026-05-01 08:51 13.48637 122.09940 32440 ft 474 kts 145°
2026-05-01 08:52 13.45984 122.11937 32940 ft 471 kts 145°
2026-05-01 08:52 13.43348 122.13920 33444 ft 468 kts 145°
2026-05-01 08:52 13.40725 122.15892 33922 ft 466 kts 146°
2026-05-01 08:52 13.38114 122.17854 34267 ft 465 kts 146°
2026-05-01 08:53 13.35497 122.19820 34559 ft 466 kts 146°
2026-05-01 08:53 13.32875 122.21789 34843 ft 467 kts 146°
2026-05-01 08:53 13.30251 122.23760 35150 ft 467 kts 146°
2026-05-01 08:53 13.27627 122.25730 35467 ft 467 kts 146°
2026-05-01 08:54 13.25003 122.27700 35773 ft 468 kts 146°
2026-05-01 08:54 13.22374 122.29672 36059 ft 468 kts 146°
2026-05-01 08:54 13.19743 122.31646 36350 ft 469 kts 146°
2026-05-01 08:54 13.17110 122.33621 36635 ft 469 kts 146°
2026-05-01 08:55 13.14473 122.35598 36835 ft 470 kts 146°
2026-05-01 08:55 13.11852 122.37563 36866 ft 464 kts 146°
2026-05-01 08:55 13.06670 122.41446 36865 ft 460 kts 146°
2026-05-01 08:56 13.01505 122.45314 36865 ft 460 kts 146°
2026-05-01 08:56 12.96333 122.49185 36864 ft 460 kts 146°
2026-05-01 08:57 12.91162 122.53053 36865 ft 462 kts 146°
2026-05-01 08:57 12.85965 122.56943 36863 ft 462 kts 146°
2026-05-01 08:58 12.81075 122.60597 36865 ft 460 kts 146°
2026-05-01 08:58 12.75904 122.64457 36864 ft 460 kts 145°
2026-05-01 08:59 12.70773 122.68287 36865 ft 459 kts 145°
2026-05-01 08:59 12.65575 122.72165 36868 ft 459 kts 145°
2026-05-01 09:00 12.60450 122.75987 36870 ft 458 kts 145°
2026-05-01 09:00 12.55307 122.79820 36870 ft 457 kts 145°
2026-05-01 09:01 12.50166 122.83651 36864 ft 457 kts 145°
2026-05-01 09:01 12.45022 122.87479 36864 ft 457 kts 145°
2026-05-01 09:02 12.39879 122.91308 36864 ft 457 kts 145°
2026-05-01 09:02 12.34735 122.95135 36865 ft 457 kts 145°